Simultaneous Nadir Overpasses (SNOs) Predictions

Prediction of SNOs between NOAA-19 and TERRA Satellite Orbit:

Table of predicted SNOs for the next 14.0 days since TLE Epoch: 11/26/2012
Index Date (NOAA-19) Time (NOAA-19) NOAA-19 Lat,Lon Date (TERRA) Time (TERRA) TERRA Lat,Lon Distance(km) Time Diff (sec)
1 11/28/2012 15:54:41 -69.12, 120.86 11/28/2012 15:55:05 -69.15, 120.84 3.30 24
2 11/28/2012 16:45:40 69.00, -71.72 11/28/2012 16:44:33 68.99, -71.72 0.67 67
3 11/30/2012 20:39:12 -69.12, 49.75 11/30/2012 20:39:24 -69.10, 49.70 2.56 12
4 11/30/2012 21:30:07 68.75,-142.50 11/30/2012 21:28:54 68.83,-143.00 21.98 73
5 12/03/2012 00:32:54 69.82, 170.36 12/03/2012 00:34:03 69.70, 171.79 56.84 69
6 12/03/2012 01:23:43 -69.11, -21.36 12/03/2012 01:23:42 -69.09, -21.38 2.32 1
7 12/03/2012 02:14:29 68.24, 147.06 12/03/2012 02:13:21 68.31, 145.29 73.29 68
8 12/05/2012 05:17:16 69.32, 99.98 12/05/2012 05:18:28 69.28, 100.16 8.20 72
9 12/05/2012 06:08:14 -69.11, -92.48 12/05/2012 06:07:59 -69.12, -92.41 3.09 15
10 12/07/2012 10:01:46 69.24, 28.97 12/07/2012 10:02:46 69.24, 29.04 2.82 60
11 12/07/2012 10:52:44 -69.06,-163.53 12/07/2012 10:52:17 -69.09,-163.53 2.99 27
12 12/09/2012 14:46:17 69.21, -42.12 12/09/2012 14:47:04 69.19, -42.10 2.48 47
13 12/09/2012 15:37:15 -69.06, 125.34 12/09/2012 15:36:35 -69.03, 125.33 3.30 40




NCC Satellite Simultaneous Nadir Overpasses (SNOs) Prediction Service
